Location: breval
(48.9474°N, 1.5319°E)
Time: 15:45:50
(UTC+00:00)

ISS - Visible Passes

Search period start: 24 February 2018 00:00
Search period end: 06 March 2018 00:00
Orbit: 402 x 407 km, 51.6° (Epoch: 25 February)

Date Brightness Start Highest point End Pass type
(mag) Time Alt. Az. Time Alt. Az. Time Alt. Az.
27 Feb -1.8 06:06:40 10° SSW 06:09:30 27° SE 06:12:20 10° E visible
28 Feb -1.1 05:15:12 10° S 05:17:25 17° SE 05:19:38 10° E visible
01 Mar -0.8 04:25:04 10° SE 04:25:24 10° SE 04:25:44 10° SE visible
01 Mar -3.0 05:58:03 10° SW 06:01:15 51° SSE 06:04:27 10° ENE visible
02 Mar -2.3 05:06:53 15° SSW 05:09:03 32° SE 05:12:02 10° E visible
03 Mar -1.7 04:16:53 20° SE 04:16:55 20° SE 04:19:25 10° E visible
03 Mar -3.8 05:49:46 10° WSW 05:53:03 87° SSE 05:56:20 10° ENE visible
04 Mar -3.5 04:59:26 31° SW 05:00:45 59° SSE 05:03:59 10° ENE visible
05 Mar -2.3 04:09:14 32° ESE 04:09:14 32° ESE 04:11:34 10° ENE visible
05 Mar -3.7 05:41:53 12° W 05:44:53 64° NNW 05:48:10 10° ENE visible
